Location: Austin
(30.3000°N, 97.7500°W)
Time: 22:57:38
(UTC-05:00)

ERS-1 Rocket - Pass Details

Date: 06 May 2026
Orbit: 747 x 750 km, 98.2° (Epoch: 13 May)

Event Time Altitude Azimuth Distance (km) Brightness Sun altitude
Exits shadow 22:23:00 34° 210° (SSW) 1,209 3.9 -25.3°
Maximum altitude 22:24:42 48° 260° (W) 971 3.7 -25.5°
Drops below altitude 10° 22:29:32 10° 335° (NNW) 2,273 6.3 -26.3°
Sets 22:31:54 0° 341° (NNW) 3,200 7.1 -26.7°
